Regional Weather Roundup
Issued by NWS

Home | Current Version | Previous Version | Text Only | Print | Product List | Glossary On
Versions: 1 2 3 4 5 6 7 8 9 10 11 12 13 14 15 16 17 18 19 20 21 22 23 24 25 26 27 28 29 30 31 32 33 34 35 36 37 38 39 40 41 42 43 44 45 46 47 48 49 50
214
ASUS43 KMKX 171300
RWRWI

WISCONSIN REGIONAL WEATHER ROUNDUP
NATIONAL WEATHER SERVICE MILWAUKEE/SULLIVAN WI
800 AM CDT THU AUG 17 2017

NOTE: "FAIR" INDICATES FEW OR NO CLOUDS BELOW 12,000 FEET WITH NO
SIGNIFICANT WEATHER AND/OR OBSTRUCTIONS TO VISIBILITY.

WIZ001-002-006>008-014>016-023>028-171400-
NORTHWEST WISCONSIN

CITY           SKY/WX    TMP DP  RH WIND       PRES   REMARKS
SUPERIOR ARPT  LGT RAIN  61  61 100 NE18G26   29.62S
ASHLAND        LGT RAIN  63  62  97 NE10      29.61F FOG
HAYWARD        RAIN      65  63  93 E5        29.59S FOG
SIREN          LGT RAIN  66  65  97 CALM      29.56S
CUMBERLAND     RAIN      63  63 100 SE6       29.57R
RICE LAKE      RAIN      65  65  97 E3        29.58S
CHETEK         LGT RAIN  66  66  99 E12       29.56F
LADYSMITH      CLOUDY    66  65  97 S3        29.61S FOG
EAU CLAIRE     PTSUNNY   67  64  90 SE9       29.54F
MENOMONIE      CLOUDY    67  65  93 E10       29.52F
NEW RICHMOND   RAIN      65  65  99 NE6       29.53R
OSCEOLA        PTSUNNY   66  66 100 E3        29.56R
$$

WIZ003>005-009-010-017-018-171400-
NORTH CENTRAL WISCONSIN

CITY           SKY/WX    TMP DP  RH WIND       PRES   REMARKS
MANITOWISH WTR CLOUDY    64  64 100 E5        29.64F FOG
ARBOR VITAE    CLOUDY    65  64  96 E8        29.64S FOG
WOODRUFF       CLOUDY    65  64  96 E8        29.64S FOG
RHINELANDER    LGT RAIN  66  66 100 E7        29.65F VSB 1/4
EAGLE RIVER    CLOUDY    65  65 100 SE7       29.65F FOG
LAND O LAKES   CLOUDY    66  66 100 SE7       29.68F
PHILLIPS       CLOUDY    65  65 100 SE5       29.61R
TOMAHAWK       HVY RAIN  66  65  97 SE6       29.63F
MEDFORD        CLOUDY    66  64  94 S9        29.62S
MERRILL        CLOUDY    68  68 100 SE7       29.63F FOG
$$

WIZ029-030-035-036-043>047-171400-
CENTRAL WISCONSIN

CITY           SKY/WX    TMP DP  RH WIND       PRES   REMARKS
WAUSAU         CLOUDY    70  68  93 S9        29.61F
MOSINEE        NOT AVBL
MARSHFIELD     CLOUDY    67  64  90 S10       29.62S
STEVENS POINT  MOSUNNY   70  68  93 SW12G18   29.65S
WAUPACA        MOSUNNY   74  73  98 S8        29.66R
WAUTOMA        MOSUNNY   71  68  90 SW8       29.66F
WISC RAPIDS    CLOUDY    71  67  87 SW16      29.65S
CAMP DOUGLAS   PTSUNNY   68  64  88 S7        29.64S
$$

WIZ011>013-019>022-031-037>040-048>050-171400-
NORTHEAST WISCONSIN

CITY           SKY/WX    TMP DP  RH WIND       PRES   REMARKS
ANTIGO         FOG       67  67 100 S8        29.66F VSB 1/4
SHAWANO        CLOUDY    74  72  93 S5        29.65S
OCONTO         CLOUDY    72  71  97 S8        29.65F
STURGEON BAY   LGT RAIN  71  70  96 S10       29.68F
GREEN BAY      MOSUNNY   72  72 100 S9        29.66F
MANITOWOC      CLOUDY    70  66  88 SE7       29.70F
APPLETON       PTSUNNY   72  72 100 S12       29.66S
CLINTONVILLE   CLOUDY    73  72  94 S10       29.65S
OSHKOSH        PTSUNNY   73  70  90 S14       29.67S
$$

WIZ032>034-041-042-053>061-171400-
SOUTHWEST WISCONSIN

CITY           SKY/WX    TMP DP  RH WIND       PRES   REMARKS
LA CROSSE      CLOUDY    72  65  78 S14       29.59F
SPARTA         CLOUDY    66  63  90 S9        29.64S
VIROQUA        CLOUDY    66  66 100 S10G17    29.66S
BOSCOBEL       CLOUDY    70  64  81 SW6G21    29.68S
PRAIRIE DU CHI CLOUDY    68  63  82 S9        29.68S
PLATTEVILLE    CLOUDY    68  68 100 SW10G20   29.73R
$$

WIZ056-057-062-063-064-067-068-171400-
SOUTH CENTRAL WISCONSIN

CITY           SKY/WX    TMP DP  RH WIND       PRES   REMARKS
REEDSBURG      CLOUDY    69  68  98 S14G21    29.67S
BARABOO/DELLS  MOSUNNY   70  64  83 SW13      29.68S
LONE ROCK      NOT AVBL
MINERAL POINT  CLOUDY    70  70 100 SW9       29.72R
MADISON        PTSUNNY   73  70  90 S10G17    29.70R
MIDDLETON      PTSUNNY   73  71  92 SW7       29.71S
WATERTOWN      CLOUDY    71  71 100 S10       29.70F
MONROE         CLOUDY    70  68  94 S12       29.73S
JANESVILLE     CLOUDY    72  72 100 S12G17    29.73S
$$

WIZ051-052-058>065-066-070>072-171400-
SOUTHEAST WISCONSIN

CITY           SKY/WX    TMP DP  RH WIND       PRES   REMARKS
MILWAUKEE      CLOUDY    73  71  93 S12       29.73S
WAUKESHA       CLOUDY    70  68  94 S7        29.74F
MILWAUKEE/TIMM CLOUDY    72  66  83 S9        29.73F
RACINE         CLOUDY    72  71  97 S8        29.76S
KENOSHA        CLOUDY    73  69  87 S10       29.76S
FOND DU LAC    PTSUNNY   74  69  85 S10       29.68F
SHEBOYGAN      CLOUDY    73  73 100 S8        29.69F
WEST BEND      CLOUDY    70  70 100 SW10      29.71S
JUNEAU         PTSUNNY   71  70  95 S8        29.71F
$$

LSZ147-162-171400-
LAKE SUPERIOR

STATION/POSITION TIME  TEMP    WIND        PRES    WAVE
                       AIR SEA DIR/SP/G            HT/PER
                 (UTC) (F)     (DEG/KT/KT) (MB)    (FT/S)
W MID LAKE BUOY  1150   61 60   40/ 17/ 21 1004.6S   3/ 4
DEVILS ISLAND    1200   61      60/ 29/ 34 1003.2F
SAXON HARBOR     1240   64      50/  7/  8 1002.4F
$$

LMZ867-665-643>646-171400-
LAKE MICHIGAN

STATION/POSITION TIME  TEMP    WIND        PRES    WAVE
                       AIR SEA DIR/SP/G            HT/PER
                 (UTC) (F)     (DEG/KT/KT) (MB)    (FT/S)
S GREEN BAY BUOY 1230   72 71  170/ 14/ 16 1004.0F
N MID LAKE BUOY  1150   68 67  140/ 19/ 21 1006.4R   4/ 4
NORTHPORT PIER   1240   69     150/ 12/ 17 1005.1F
KEWAUNEE LAKESHO 1230   69     180/ 15/ 18 1004.5F
SHEBOYGAN LAKESH 1200   73     190/ 13/ 15 1005.5R
PORT WASHINGTON  1240   73     180/  8/ 11 1006.4F
ATWATER BUOY     1139   73 71  200/ 10/ 14 1007.1F
MILWAUKEE LAKESH 1250   72     190/ 11/ 13   N/A
S MID LAKE BUOY  1150   73 71  190/ 16/ 17 1007.6F   3/ 4
KENOSHA   LAKESH 1200   72     200/  6/  9 1007.5
$$

TC  - TEMPERATURE IN CELSIUS
VSB - VISIBILITY IN STATUTE MILES
WCI - WIND CHILL INDEX
HX  - HEAT INDEX





USA.gov is the U.S. government's official web portal to all federal, state and local government web resources and services.